• In Italy
  • List of Countries
  • For 7 days
  • Water Temperature
  • Satellite Maps
  • Weather Map
  • Weather Widgets
  • user-avatar
    Login

    Hourly Weather Dumfries

    Today, 12 December, Tuesday

    Time Temperature Precipitation Wind Pressure Humidity
    00:00 0°C° 0 mm 1 mps 747 mmHg 90%
    01:00 -2°C° 0 mm 2 mps 747 mmHg 90%
    02:00 -2°C° 0 mm 2 mps 748 mmHg 90%
    03:00 -2°C° 0 mm 2 mps 748 mmHg 90%
    04:00 -2°C° 0 mm 2 mps 748 mmHg 90%
    05:00 -2°C° 0 mm 2 mps 748 mmHg 90%
    06:00 -2°C° 0 mm 2 mps 748 mmHg 91%
    07:00 -2°C° 0 mm 2 mps 748 mmHg 91%
    08:00 -2°C° 0 mm 2 mps 748 mmHg 91%
    09:00 -1°C° 0 mm 2 mps 748 mmHg 91%
    10:00 +1°C° 0 mm 2 mps 748 mmHg 90%
    11:00 +1°C° 0 mm 2 mps 748 mmHg 89%
    12:00 +1°C° 0 mm 3 mps 748 mmHg 89%
    13:00 +2°C° 0.1 mm 3 mps 747 mmHg 89%
    14:00 +2°C° 0.1 mm 3 mps 746 mmHg 90%
    15:00 +1°C° 0.1 mm 4 mps 746 mmHg 91%
    16:00 +1°C° 0.6 mm 4 mps 745 mmHg 92%
    17:00 +1°C° 0.6 mm 5 mps 744 mmHg 92%
    18:00 +2°C° 0.6 mm 5 mps 743 mmHg 92%
    19:00 +2°C° 0.1 mm 5 mps 743 mmHg 92%
    20:00 +2°C° 0.1 mm 5 mps 743 mmHg 91%
    21:00 +2°C° 0.1 mm 5 mps 742 mmHg 90%
    22:00 +3°C° 0 mm 4 mps 742 mmHg 90%
    23:00 +1°C° 0 mm 4 mps 742 mmHg 89%

    Tomorrow, 13 December, Wednesday

    Time Temperature Precipitation Wind Pressure Humidity
    00:00 +1°C° 0 mm 4 mps 742 mmHg 88%
    01:00 +1°C° 0.1 mm 4 mps 742 mmHg 88%
    02:00 +1°C° 0.1 mm 4 mps 742 mmHg 89%
    03:00 +1°C° 0.1 mm 4 mps 742 mmHg 89%
    04:00 +1°C° 0.3 mm 4 mps 741 mmHg 90%
    05:00 +3°C° 0.3 mm 4 mps 740 mmHg 91%
    06:00 +2°C° 0.3 mm 5 mps 739 mmHg 92%
    07:00 +2°C° 0.8 mm 5 mps 738 mmHg 91%
    08:00 +2°C° 0.8 mm 5 mps 738 mmHg 90%
    09:00 +2°C° 0.8 mm 5 mps 737 mmHg 88%
    10:00 +2°C° 0.3 mm 5 mps 737 mmHg 86%
    11:00 +2°C° 0.3 mm 5 mps 737 mmHg 83%
    12:00 +1°C° 0.3 mm 5 mps 737 mmHg 80%
    13:00 +1°C° 0.3 mm 5 mps 736 mmHg 80%
    14:00 +1°C° 0.3 mm 5 mps 736 mmHg 80%
    15:00 0°C° 0.3 mm 4 mps 736 mmHg 80%
    16:00 0°C° 0.2 mm 4 mps 735 mmHg 81%
    17:00 0°C° 0.2 mm 4 mps 735 mmHg 82%
    18:00 -1°C° 0.2 mm 4 mps 735 mmHg 83%
    19:00 -1°C° 0.1 mm 4 mps 735 mmHg 83%
    20:00 -1°C° 0.1 mm 4 mps 734 mmHg 82%
    21:00 -1°C° 0.1 mm 4 mps 734 mmHg 82%
    22:00 -1°C° 0.2 mm 4 mps 734 mmHg 82%
    23:00 -1°C° 0.2 mm 4 mps 734 mmHg 82%

    Day after tomorrow, 14 December, Thursday

    Time Temperature Precipitation Wind Pressure Humidity
    00:00 -1°C° 0.2 mm 4 mps 734 mmHg 82%
    01:00 -1°C° 0.1 mm 4 mps 734 mmHg 83%
    02:00 -1°C° 0.1 mm 4 mps 734 mmHg 85%
    03:00 -1°C° 0.1 mm 4 mps 733 mmHg 86%
    04:00 -1°C° 0.2 mm 4 mps 733 mmHg 86%
    05:00 -1°C° 0.2 mm 4 mps 733 mmHg 87%
    06:00 -1°C° 0.2 mm 4 mps 733 mmHg 88%
    07:00 0°C° 0.2 mm 4 mps 733 mmHg 88%
    08:00 0°C° 0.2 mm 4 mps 733 mmHg 88%
    09:00 +1°C° 0.2 mm 3 mps 733 mmHg 89%
    10:00 0°C° 0.7 mm 4 mps 733 mmHg 88%
    11:00 +1°C° 0.7 mm 4 mps 733 mmHg 88%
    12:00 +1°C° 0.7 mm 4 mps 733 mmHg 87%
    13:00 +1°C° 0.3 mm 4 mps 733 mmHg 88%
    14:00 +2°C° 0.3 mm 3 mps 733 mmHg 89%
    15:00 +1°C° 0.3 mm 3 mps 733 mmHg 91%
    16:00 +1°C° 0 mm 3 mps 734 mmHg 89%
    17:00 0°C° 0 mm 3 mps 734 mmHg 88%
    18:00 0°C° 0 mm 3 mps 735 mmHg 87%
    19:00 -1°C° 0 mm 4 mps 735 mmHg 86%
    20:00 0°C° 0 mm 5 mps 736 mmHg 84%
    21:00 +1°C° 0 mm 6 mps 736 mmHg 83%
    22:00 +1°C° 0.1 mm 6 mps 737 mmHg 83%
    23:00 +1°C° 0.1 mm 6 mps 738 mmHg 82%

    15 December, Friday

    Time Temperature Precipitation Wind Pressure Humidity
    00:00 +1°C° 0.1 mm 6 mps 738 mmHg 82%
    01:00 -1°C° 0 mm 6 mps 739 mmHg 82%
    02:00 0°C° 0 mm 5 mps 741 mmHg 82%
    03:00 -1°C° 0 mm 4 mps 742 mmHg 82%
    04:00 -1°C° 0 mm 4 mps 743 mmHg 83%
    05:00 -1°C° 0 mm 4 mps 744 mmHg 84%
    06:00 -1°C° 0 mm 4 mps 745 mmHg 85%
    07:00 -1°C° 0 mm 4 mps 746 mmHg 86%
    08:00 -1°C° 0 mm 4 mps 747 mmHg 86%
    09:00 0°C° 0 mm 3 mps 747 mmHg 87%
    10:00 +1°C° 0 mm 3 mps 748 mmHg 87%
    11:00 +1°C° 0 mm 3 mps 749 mmHg 86%
    12:00 +2°C° 0 mm 3 mps 750 mmHg 85%
    13:00 +1°C° 0 mm 3 mps 750 mmHg 86%
    14:00 +1°C° 0 mm 3 mps 751 mmHg 87%
    15:00 +1°C° 0 mm 3 mps 751 mmHg 87%
    16:00 0°C° 0 mm 3 mps 752 mmHg 87%
    17:00 -1°C° 0 mm 3 mps 752 mmHg 88%
    18:00 -1°C° 0 mm 3 mps 752 mmHg 88%
    19:00 -2°C° 0 mm 3 mps 753 mmHg 87%
    20:00 -2°C° 0 mm 3 mps 753 mmHg 86%
    21:00 -2°C° 0 mm 3 mps 754 mmHg 85%
    22:00 -2°C° 0 mm 3 mps 754 mmHg 84%
    23:00 -2°C° 0 mm 3 mps 754 mmHg 84%

    16 December, Saturday

    Time Temperature Precipitation Wind Pressure Humidity
    00:00 -2°C° 0 mm 3 mps 754 mmHg 83%
    01:00 -2°C° 0 mm 3 mps 755 mmHg 83%
    02:00 -2°C° 0 mm 3 mps 755 mmHg 82%
    03:00 -2°C° 0 mm 3 mps 755 mmHg 82%
    04:00 -2°C° 0 mm 3 mps 755 mmHg 82%
    05:00 -2°C° 0 mm 3 mps 756 mmHg 82%
    06:00 -2°C° 0 mm 3 mps 756 mmHg 82%
    07:00 -2°C° 0 mm 3 mps 756 mmHg 83%
    08:00 -2°C° 0 mm 2 mps 757 mmHg 84%
    09:00 -2°C° 0 mm 2 mps 757 mmHg 84%
    10:00 -1°C° 0.1 mm 2 mps 757 mmHg 84%
    11:00 +1°C° 0.1 mm 2 mps 757 mmHg 84%
    12:00 +2°C° 0.1 mm 2 mps 758 mmHg 84%
    13:00 +3°C° 0.3 mm 1 mps 758 mmHg 86%
    14:00 +2°C° 0.3 mm 1 mps 758 mmHg 87%
    15:00 +2°C° 0.3 mm 1 mps 758 mmHg 88%
    16:00 +2°C° 0.1 mm 1 mps 758 mmHg 89%
    17:00 +1°C° 0.1 mm 1 mps 759 mmHg 89%
    18:00 0°C° 0.1 mm 1 mps 759 mmHg 89%
    19:00 0°C° 0 mm 1 mps 760 mmHg 88%
    20:00 -1°C° 0 mm 1 mps 760 mmHg 88%
    21:00 -1°C° 0 mm 1 mps 760 mmHg 87%
    22:00 -1°C° 0 mm 1 mps 761 mmHg 86%
    23:00 -1°C° 0 mm 1 mps 761 mmHg 86%

    17 December, Sunday

    Time Temperature Precipitation Wind Pressure Humidity
    00:00 -2°C° 0 mm 1 mps 761 mmHg 85%
    01:00 -2°C° 0 mm 1 mps 761 mmHg 85%
    02:00 -2°C° 0 mm 1 mps 761 mmHg 84%
    03:00 -2°C° 0 mm 1 mps 761 mmHg 83%
    04:00 -2°C° 0 mm 1 mps 761 mmHg 83%
    05:00 -2°C° 0 mm 1 mps 761 mmHg 82%
    06:00 -2°C° 0 mm 1 mps 761 mmHg 82%
    07:00 -2°C° 0 mm 1 mps 761 mmHg 82%
    08:00 -2°C° 0 mm 1 mps 761 mmHg 82%
    09:00 -2°C° 0 mm 1 mps 761 mmHg 82%
    10:00 -1°C° 0 mm 1 mps 761 mmHg 82%
    11:00 -2°C° 0 mm 2 mps 761 mmHg 81%
    12:00 -1°C° 0 mm 2 mps 760 mmHg 81%
    13:00 -1°C° 0 mm 2 mps 760 mmHg 82%
    14:00 -2°C° 0 mm 2 mps 759 mmHg 84%
    15:00 -2°C° 0 mm 2 mps 759 mmHg 85%
    16:00 -1°C° 0.2 mm 3 mps 758 mmHg 87%
    17:00 0°C° 0.2 mm 3 mps 757 mmHg 89%
    18:00 0°C° 0.2 mm 3 mps 756 mmHg 92%
    19:00 +1°C° 0.9 mm 3 mps 756 mmHg 93%
    20:00 +2°C° 0.9 mm 3 mps 756 mmHg 95%
    21:00 +3°C° 0.9 mm 3 mps 755 mmHg 97%
    22:00 +3°C° 0.2 mm 3 mps 755 mmHg 97%
    23:00 +3°C° 0.2 mm 3 mps 755 mmHg 97%
    Show more